Total_Precipitation_Accumulation
0.47 0.30 0.23 0.22 0.21 0.21 0.23 0.29 0.55 0.86 1.19 1.46 1.74 1.77 1.59 1.36 1.20 1.20 1.22 1.21 1.13 0.99 0.88 0.73 0.64 0.60 0.57 0.54 0.49 0.45 0.45 0.45 0.47 0.44 0.42 0.43 0.45 0.41 0.37 0.34 0.30 0.28 0.25 0.21
0.38 0.31 0.29 0.36 0.33 0.34 0.37 0.43 0.59 0.91 1.34 1.53 1.52 1.35 1.31 1.25 1.16 1.24 1.39 1.45 1.40 1.23 1.04 0.89 0.79 0.72 0.67 0.62 0.53 0.46 0.45 0.49 0.50 0.48 0.48 0.47 0.45 0.44 0.41 0.36 0.32 0.25 0.21 0.18
0.51 0.39 0.48 0.78 0.64 0.57 0.58 0.59 0.70 0.99 1.13 1.06 1.13 1.15 1.19 1.19 1.24 1.42 1.55 1.52 1.38 1.25 1.12 1.00 0.94 0.85 0.78 0.71 0.62 0.54 0.53 0.52 0.52 0.49 0.49 0.46 0.41 0.42 0.40 0.35 0.31 0.28 0.23 0.20
0.48 0.57 0.98 1.01 0.63 0.56 0.58 0.54 0.53 0.63 0.65 0.73 0.89 1.03 1.17 1.26 1.41 1.59 1.69 1.71 1.62 1.41 1.25 1.08 0.93 0.84 0.75 0.65 0.61 0.58 0.57 0.55 0.52 0.48 0.45 0.42 0.41 0.42 0.39 0.35 0.32 0.31 0.26 0.22
0.60 0.83 1.03 0.94 0.58 0.50 0.63 0.68 0.49 0.48 0.49 0.56 0.67 0.85 1.22 1.37 1.46 1.57 1.63 1.63 1.56 1.41 1.27 1.13 0.96 0.81 0.70 0.64 0.60 0.58 0.57 0.51 0.43 0.38 0.38 0.37 0.40 0.42 0.39 0.37 0.35 0.31 0.27 0.24
0.69 1.01 1.32 1.15 0.53 0.31 0.53 0.97 0.62 0.42 0.39 0.49 0.69 0.98 1.11 1.12 1.22 1.24 1.19 1.14 1.13 1.08 1.03 0.96 0.84 0.71 0.65 0.62 0.56 0.48 0.42 0.36 0.30 0.29 0.31 0.33 0.34 0.36 0.35 0.34 0.32 0.28 0.27 0.27
0.75 1.02 1.22 0.63 0.33 0.37 0.92 1.20 0.81 0.60 0.55 0.61 0.82 0.89 0.75 0.71 0.86 0.94 0.94 0.93 0.88 0.84 0.84 0.80 0.69 0.64 0.61 0.57 0.49 0.36 0.29 0.27 0.25 0.25 0.26 0.26 0.28 0.32 0.33 0.31 0.32 0.31 0.31 0.30
0.84 1.11 1.25 0.48 0.35 0.68 0.81 0.61 0.61 0.61 0.62 0.66 0.64 0.56 0.50 0.51 0.65 0.83 0.94 0.96 0.88 0.79 0.72 0.62 0.58 0.63 0.64 0.55 0.39 0.29 0.27 0.27 0.26 0.21 0.17 0.17 0.27 0.34 0.32 0.34 0.36 0.36 0.35 0.31
0.90 1.03 0.75 0.37 0.36 0.37 0.36 0.39 0.40 0.41 0.43 0.50 0.56 0.54 0.50 0.54 0.65 0.75 0.85 0.89 0.83 0.72 0.62 0.50 0.45 0.49 0.51 0.40 0.26 0.24 0.27 0.30 0.28 0.23 0.21 0.20 0.26 0.31 0.31 0.32 0.30 0.29 0.29 0.27
0.76 0.76 0.52 0.37 0.28 0.24 0.26 0.32 0.32 0.34 0.37 0.49 0.67 0.69 0.64 0.62 0.71 0.74 0.74 0.67 0.60 0.56 0.50 0.40 0.33 0.30 0.29 0.22 0.20 0.24 0.28 0.28 0.25 0.25 0.27 0.25 0.24 0.20 0.22 0.24 0.22 0.22 0.24 0.26
0.98 0.88 0.67 0.43 0.31 0.29 0.27 0.31 0.38 0.45 0.48 0.53 0.58 0.64 0.66 0.65 0.62 0.56 0.51 0.45 0.42 0.44 0.39 0.29 0.23 0.20 0.16 0.14 0.18 0.24 0.26 0.24 0.22 0.20 0.23 0.27 0.22 0.13 0.11 0.12 0.09 0.13 0.17 0.19
1.29 0.98 0.82 0.63 0.48 0.46 0.43 0.43 0.45 0.44 0.43 0.44 0.42 0.43 0.49 0.51 0.47 0.40 0.36 0.34 0.34 0.32 0.29 0.23 0.18 0.16 0.12 0.11 0.14 0.24 0.26 0.21 0.15 0.12 0.14 0.16 0.19 0.18 0.08 0.04 0.03 0.04 0.06 0.08
0.95 0.74 0.66 0.63 0.58 0.55 0.49 0.38 0.34 0.31 0.27 0.31 0.33 0.31 0.33 0.32 0.30 0.28 0.27 0.25 0.26 0.21 0.18 0.18 0.14 0.12 0.09 0.08 0.09 0.15 0.19 0.16 0.10 0.06 0.09 0.12 0.15 0.23 0.24 0.13 0.04 0.03 0.03 0.05
0.63 0.60 0.59 0.46 0.34 0.27 0.20 0.17 0.19 0.21 0.21 0.20 0.21 0.21 0.20 0.20 0.19 0.19 0.19 0.18 0.17 0.13 0.11 0.13 0.13 0.11 0.07 0.06 0.07 0.09 0.10 0.07 0.06 0.08 0.06 0.08 0.09 0.13 0.18 0.25 0.24 0.18 0.08 0.05
0.38 0.37 0.31 0.19 0.12 0.11 0.10 0.10 0.12 0.16 0.17 0.19 0.16 0.15 0.13 0.15 0.16 0.16 0.13 0.12 0.12 0.11 0.09 0.08 0.09 0.09 0.05 0.04 0.05 0.08 0.08 0.08 0.07 0.05 0.05 0.04 0.05 0.07 0.10 0.16 0.20 0.21 0.18 0.11
0.19 0.16 0.14 0.10 0.08 0.08 0.09 0.09 0.09 0.10 0.11 0.13 0.15 0.13 0.11 0.11 0.10 0.11 0.10 0.09 0.11 0.12 0.09 0.06 0.06 0.04 0.03 0.03 0.05 0.06 0.05 0.03 0.04 0.04 0.04 0.03 0.03 0.05 0.08 0.13 0.14 0.16 0.18 0.16
0.15 0.11 0.09 0.08 0.07 0.08 0.08 0.07 0.05 0.05 0.07 0.09 0.09 0.07 0.07 0.07 0.09 0.11 0.09 0.09 0.09 0.09 0.07 0.05 0.04 0.02 0.01 0.01 0.03 0.03 0.02 0.01 0.01 0.02 0.02 0.02 0.02 0.02 0.04 0.08 0.11 0.13 0.11 0.10
0.12 0.08 0.06 0.06 0.05 0.05 0.05 0.04 0.03 0.03 0.04 0.03 0.02 0.03 0.04 0.06 0.08 0.08 0.06 0.06 0.06 0.05 0.04 0.03 0.02 0.01 0.01 0.01 0.01 0.01 0.01 0.01 0.01 0.01 0.01 0.01 0.01 0.02 0.02 0.03 0.05 0.09 0.10 0.10
0.10 0.09 0.05 0.05 0.04 0.03 0.02 0.02 0.02 0.01 0.01 0.01 0.01 0.02 0.03 0.05 0.05 0.04 0.04 0.06 0.07 0.07 0.05 0.02 0.01 0.01 0.01 0.01 0.01 0.01 0.01 0.01 0.01 0.01 0.00 0.01 0.01 0.02 0.02 0.02 0.03 0.05 0.07 0.11
0.08 0.09 0.06 0.04 0.03 0.02 0.01 0.01 0.01 0.01 0.01 0.01 0.01 0.02 0.03 0.03 0.03 0.03 0.04 0.06 0.07 0.04 0.03 0.01 0.01 0.01 0.00 0.00 0.00 0.00 0.00 0.01 0.01 0.00 0.00 0.01 0.01 0.01 0.01 0.01 0.01 0.03 0.05 0.08
0.07 0.08 0.05 0.02 0.02 0.01 0.01 0.01 0.01 0.01 0.01 0.00 0.01 0.01 0.02 0.02 0.02 0.02 0.03 0.05 0.04 0.02 0.01 0.01 0.00 0.00 0.00 0.00 0.00 0.00 0.00 0.00 0.00 0.00 0.00 0.00 0.00 0.01 0.01 0.01 0.01 0.02 0.03 0.05
0.07 0.09 0.06 0.03 0.02 0.02 0.01 0.01 0.01 0.01 0.01 0.00 0.00 0.01 0.01 0.02 0.02 0.02 0.02 0.02 0.02 0.01 0.01 0.00 0.00 0.00 0.00 0.00 0.00 0.00 0.00 0.00 0.00 0.00 0.00 0.00 0.00 0.00 0.01 0.01 0.01 0.01 0.02 0.03
0.10 0.09 0.06 0.03 0.03 0.02 0.02 0.01 0.01 0.02 0.01 0.01 0.01 0.01 0.01 0.01 0.01 0.02 0.02 0.00 0.00 0.00 0.00 0.00 0.00 0.00 0.00 0.00 0.00 0.00 0.00 0.00 0.00 0.00 0.00 0.00 0.00 0.00 0.00 0.00 0.01 0.01 0.02 0.02
0.13 0.11 0.08 0.04 0.03 0.03 0.03 0.02 0.01 0.01 0.02 0.01 0.01 0.01 0.01 0.01 0.01 0.01 0.00 0.00 0.00 0.00 0.00 0.00 0.00 0.00 0.00 0.00 0.00 0.00 0.00 0.00 0.00 0.00 0.00 0.00 0.00 0.00 0.00 0.00 0.00 0.01 0.01 0.01
0.19 0.14 0.08 0.07 0.07 0.06 0.04 0.02 0.01 0.01 0.01 0.01 0.01 0.01 0.01 0.00 0.00 0.00 0.00 0.00 0.00 0.00 0.00 0.00 0.00 0.00 0.00 0.00 0.00 0.00 0.00 0.00 0.00 0.00 0.00 0.00 0.00 0.00 0.00 0.00 0.00 0.00 0.00 0.00
0.25 0.21 0.15 0.11 0.08 0.05 0.04 0.03 0.02 0.02 0.02 0.02 0.02 0.01 0.01 0.01 0.00 0.00 0.00 0.00 0.01 0.01 0.00 0.00 0.00 0.00 0.00 0.00 0.00 0.00 0.00 0.00 0.00 0.00 0.00 0.00 0.00 0.00 0.00 0.00 0.00 0.00 0.00 0.00
0.31 0.27 0.21 0.13 0.07 0.04 0.06 0.07 0.05 0.03 0.02 0.02 0.03 0.02 0.02 0.01 0.00 0.00 0.00 0.00 0.01 0.01 0.01 0.00 0.00 0.00 0.00 0.00 0.00 0.00 0.00 0.00 0.00 0.00 0.00 0.00 0.00 0.00 0.00 0.00 0.00 0.00 0.00 0.00